AE5HO Weather Reports


Display with metric or nautical units.
time (UTC)temp
F
wind
direction
speed
MPH
gust
MPH
rain 1hr
in
rain 24hr
in
rain mn
in
humidity
%
barometer
mb
20260904105940 79 215 1.0 2.0 0.00 0.00 0.00 87 1014.2
20260904105435 79 203 1.0 2.0 0.00 0.00 0.00 87 1014.2
20260904104931 79 180 0.0 2.0 0.00 0.00 0.00 87 1014.0
20260904104430 79 8 0.0 0.0 0.00 0.00 0.00 87 1013.8
20260904103927 79 195 0.0 2.0 0.00 0.00 0.00 87 1013.8
20260904103422 79 172 0.0 2.0 0.00 0.00 0.00 87 1013.6
20260904102918 79 187 0.0 2.0 0.00 0.00 0.00 87 1013.9
20260904102414 79 198 0.0 0.0 0.00 0.00 0.00 87 1013.8
20260904101909 79 198 0.0 1.0 0.00 0.00 0.00 87 1013.7
20260904101406 79 200 0.0 1.0 0.00 0.00 0.00 87 1013.8
20260904100901 79 200 1.0 2.0 0.00 0.00 0.00 87 1013.8
20260904100357 79 195 0.0 2.0 0.00 0.00 0.00 87 1013.8
20260904095851 79 240 0.0 1.0 0.00 0.00 0.00 86 1013.9
20260904095345 79 82 0.0 3.0 0.00 0.00 0.00 86 1013.6
20260904094841 79 172 0.0 2.0 0.00 0.00 0.00 86 1013.8
20260904094336 79 160 0.0 2.0 0.00 0.00 0.00 86 1013.6
20260904093832 79 348 0.0 2.0 0.00 0.00 0.00 86 1013.9
20260904093332 79 0 0.0 0.0 0.00 0.00 0.00 86 1013.7
20260904092828 79 180 0.0 2.0 0.00 0.00 0.00 86 1013.9
20260904092324 79 187 0.0 2.0 0.00 0.00 0.00 86 1013.8
20260904091820 79 7 0.0 1.0 0.00 0.00 0.00 86 1013.6
20260904091320 79 180 0.0 1.0 0.00 0.00 0.00 86 1013.7
20260904090815 79 355 0.0 2.0 0.00 0.00 0.00 86 1013.8
20260904090312 79 195 0.0 1.0 0.00 0.00 0.00 85 1013.8
20260904085806 79 187 0.0 1.0 0.00 0.00 0.00 86 1013.5
20260904085305 79 194 0.0 1.0 0.00 0.00 0.00 85 1013.8
20260904084756 80 250 0.0 2.0 0.00 0.00 0.00 85 1013.6
20260904084251 79 188 0.0 3.0 0.00 0.00 0.00 85 1013.9
20260904083748 80 195 2.0 2.0 0.00 0.00 0.00 85 1013.8
20260904083245 80 188 0.0 2.0 0.00 0.00 0.00 85 1013.7
20260904082745 80 169 0.0 0.0 0.00 0.00 0.00 85 1013.3
20260904082239 80 200 0.0 2.0 0.00 0.00 0.00 85 1013.7
20260904081735 80 186 1.0 2.0 0.00 0.00 0.00 85 1013.5
20260904081230 80 270 0.0 1.0 0.00 0.00 0.00 84 1013.6
20260904080726 80 192 0.0 1.0 0.00 0.00 0.00 84 1013.6
20260904080222 80 90 0.0 3.0 0.00 0.00 0.00 84 1013.5
20260904075719 80 215 0.0 1.0 0.00 0.00 0.00 84 1013.6
20260904075219 80 187 0.0 1.0 0.00 0.00 0.00 84 1013.7
20260904074718 80 240 2.0 2.0 0.00 0.00 0.00 83 1013.6
20260904074212 80 180 2.0 3.0 0.00 0.00 0.00 83 1013.6
20260904073708 80 270 0.0 3.0 0.00 0.00 0.00 83 1013.8
20260904073204 80 186 1.0 2.0 0.00 0.00 0.00 83 1013.8
20260904072700 80 180 0.0 3.0 0.00 0.00 0.00 83 1013.9
20260904072200 80 99 0.0 1.0 0.00 0.00 0.00 82 1013.6
20260904071656 80 14 0.0 3.0 0.00 0.00 0.00 82 1013.8
20260904071151 80 114 0.0 2.0 0.00 0.00 0.00 81 1013.9
20260904070650 80 90 0.0 2.0 0.00 0.00 0.00 81 1013.8
20260904070149 80 187 0.0 1.0 0.00 0.00 0.00 81 1013.8
20260904065644 80 180 0.0 1.0 0.00 0.00 0.00 81 1013.8
20260904065142 80 180 0.0 2.0 0.00 0.00 0.00 81 1013.9
20260904064636 80 251 0.0 2.0 0.00 0.00 0.00 81 1013.8
20260904064136 80 16 0.0 2.0 0.00 0.00 0.00 80 1014.1
20260904063632 80 200 0.0 2.0 0.00 0.00 0.00 80 1013.9
20260904063128 80 192 0.0 2.0 0.00 0.00 0.00 80 1014.0
20260904062624 80 11 0.0 2.0 0.00 0.00 0.00 80 1014.1
20260904062119 80 191 2.0 3.0 0.00 0.00 0.00 80 1014.2
20260904061615 80 270 0.0 2.0 0.00 0.00 0.00 80 1014.0
20260904061111 81 225 0.0 3.0 0.00 0.00 0.00 79 1013.8
20260904060607 81 190 2.0 3.0 0.00 0.00 0.00 79 1014.3
20260904060104 81 185 2.0 2.0 0.00 0.00 0.00 77 1013.9
20260904055603 81 262 0.0 2.0 0.00 0.00 0.00 77 1014.1
20260904055059 81 175 2.0 2.0 0.00 0.00 0.00 76 1014.1
20260904054554 81 194 3.0 4.0 0.00 0.00 0.00 76 1014.1
20260904054050 81 276 2.0 3.0 0.00 0.00 0.00 75 1014.2
20260904053550 81 297 1.0 2.0 0.00 0.00 0.00 75 1014.1
20260904053045 81 165 0.0 2.0 0.00 0.00 0.00 74 1014.0
20260904052542 81 199 2.0 3.0 0.00 0.00 0.00 74 1013.9
20260904052037 81 194 0.0 2.0 0.00 0.00 0.00 73 1013.9
20260904051534 81 175 0.0 2.0 0.00 0.00 0.00 73 1013.7
20260904051033 81 239 0.0 2.0 0.00 0.00 0.00 73 1013.9
20260904050529 82 196 0.0 3.0 0.00 0.00 0.00 72 1013.7
20260904050025 82 188 0.0 1.0 0.00 0.00 0.00 71 1014.0
20260904045520 82 186 0.0 1.0 0.00 0.00 0.00 71 1013.8
20260904045014 82 257 0.0 2.0 0.00 0.00 0.00 71 1013.9
20260904044510 82 168 0.0 2.0 0.00 0.00 0.00 71 1013.7
20260904044007 82 143 2.0 3.0 0.00 0.00 0.00 70 1013.9
20260904043503 82 195 0.0 2.0 0.00 0.00 0.00 70 1013.7
20260904042958 82 250 3.0 3.0 0.00 0.00 0.00 70 1013.6
20260904042455 82 143 2.0 3.0 0.00 0.00 0.00 70 1013.7
20260904041949 82 184 0.0 2.0 0.00 0.00 0.00 69 1013.9
20260904041446 82 172 1.0 2.0 0.00 0.00 0.00 69 1013.8
20260904040941 82 189 0.0 3.0 0.00 0.00 0.00 69 1014.0
20260904040441 82 220 0.0 2.0 0.00 0.00 0.00 69 1013.6
20260904035937 83 180 0.0 3.0 0.00 0.00 0.00 69 1013.9
20260904035433 83 180 0.0 3.0 0.00 0.00 0.00 69 1013.8
20260904034932 83 191 0.0 4.0 0.00 0.00 0.00 70 1013.8
20260904034427 83 203 1.0 2.0 0.00 0.00 0.00 70 1013.8
20260904033923 83 206 0.0 3.0 0.00 0.00 0.00 70 1013.9
20260904033419 83 90 0.0 2.0 0.00 0.00 0.00 70 1013.8
20260904032915 83 184 0.0 2.0 0.00 0.00 0.00 71 1013.7
20260904032410 83 192 3.0 3.0 0.00 0.00 0.00 70 1013.9
20260904031904 83 165 0.0 2.0 0.00 0.00 0.00 70 1013.8
20260904031359 83 345 1.0 4.0 0.00 0.00 0.00 70 1013.9
20260904030856 83 168 0.0 3.0 0.00 0.00 0.00 70 1013.8
20260904030351 83 180 2.0 3.0 0.00 0.00 0.00 70 1013.7
20260904025846 83 180 2.0 3.0 0.00 0.00 0.00 69 1013.9
20260904025342 84 234 0.0 4.0 0.00 0.00 0.00 68 1013.6
20260904024842 84 195 2.0 4.0 0.00 0.00 0.00 68 1013.5
20260904024337 84 109 2.0 2.0 0.00 0.00 0.00 68 1013.4
20260904023833 84 263 0.0 2.0 0.00 0.00 0.00 67 1013.5
20260904023329 84 259 0.0 3.0 0.00 0.00 0.00 68 1013.5
20260904022828 84 180 0.0 2.0 0.00 0.00 0.00 68 1013.5
20260904022325 84 175 0.0 3.0 0.00 0.00 0.00 69 1013.3
20260904021822 84 166 0.0 2.0 0.00 0.00 0.00 70 1013.0
20260904021321 84 180 0.0 1.0 0.00 0.00 0.00 70 1013.1
20260904020817 84 165 0.0 4.0 0.00 0.00 0.00 70 1012.9
20260904020312 84 166 0.0 2.0 0.00 0.00 0.00 70 1012.9
20260904015810 85 166 1.0 3.0 0.00 0.00 0.00 70 1012.6
20260904015307 85 194 2.0 3.0 0.00 0.00 0.00 70 1012.4
20260904014804 85 174 0.0 4.0 0.00 0.00 0.00 70 1012.4
20260904014259 85 286 1.0 3.0 0.00 0.00 0.00 70 1012.3
20260904013755 85 209 0.0 2.0 0.00 0.00 0.00 70 1012.6
20260904013251 85 188 0.0 3.0 0.00 0.00 0.00 69 1012.4
20260904012747 86 42 3.0 4.0 0.00 0.00 0.00 69 1012.2
20260904012247 86 90 1.0 4.0 0.00 0.00 0.00 67 1012.2
20260904011746 87 337 1.0 4.0 0.00 0.00 0.00 65 1012.2
20260904011242 87 180 0.0 3.0 0.00 0.00 0.00 64 1012.0
20260904010742 87 193 0.0 3.0 0.00 0.00 0.00 64 1012.1
20260904010239 87 183 2.0 3.0 0.00 0.00 0.00 64 1011.7
20260904005733 87 184 2.0 8.0 0.00 0.00 0.00 64 1011.8
20260904005230 87 90 1.0 4.0 0.00 0.00 0.00 64 1012.0
20260904004729 88 96 2.0 3.0 0.00 0.00 0.00 63 1011.9
20260904004225 88 0 1.0 2.0 0.00 0.00 0.00 64 1011.7
20260904003720 88 170 0.0 3.0 0.00 0.00 0.00 63 1011.7
20260904003216 88 187 3.0 4.0 0.00 0.00 0.00 63 1011.7
20260904002712 88 172 0.0 3.0 0.00 0.00 0.00 63 1011.7
20260904002208 89 188 0.0 3.0 0.00 0.00 0.00 63 1011.7
20260904001702 89 14 0.0 4.0 0.00 0.00 0.00 63 1011.7
20260904001201 89 180 0.0 5.0 0.00 0.00 0.00 63 1011.5
20260904000657 89 185 2.0 4.0 0.00 0.00 0.00 63 1011.7
20260904000152 89 203 2.0 4.0 0.00 0.00 0.00 63 1011.7
20260903235651 89 198 0.0 2.0 0.00 0.00 0.00 62 1011.6
20260903235148 90 12 2.0 5.0 0.00 0.00 0.00 61 1011.6
20260903234642 91 0 1.0 2.0 0.00 0.00 0.00 61 1011.5
20260903234139 91 261 0.0 2.0 0.00 0.00 0.00 61 1011.3
20260903233635 91 281 2.0 4.0 0.00 0.00 0.00 60 1011.6
20260903233130 92 187 0.0 2.0 0.00 0.00 0.00 60 1011.4
20260903232624 92 168 0.0 4.0 0.00 0.00 0.00 59 1011.3
20260903232120 93 331 0.0 5.0 0.00 0.00 0.00 59 1011.0
20260903231614 93 180 0.0 5.0 0.00 0.00 0.00 59 1011.4
20260903231114 93 71 0.0 4.0 0.00 0.00 0.00 59 1011.4
20260903230610 93 180 1.0 3.0 0.00 0.00 0.00 59 1011.3
20260903230109 93 145 0.0 3.0 0.00 0.00 0.00 60 1011.3
20260903225607 93 191 3.0 3.0 0.00 0.00 0.00 59 1011.3
20260903225103 93 184 0.0 3.0 0.00 0.00 0.00 60 1011.4
20260903224559 93 210 2.0 6.0 0.00 0.00 0.00 60 1011.4
20260903224055 93 294 2.0 3.0 0.00 0.00 0.00 60 1011.2
20260903223554 93 255 1.0 5.0 0.00 0.00 0.00 60 1011.0
20260903223053 93 23 0.0 3.0 0.00 0.00 0.00 59 1011.3
20260903222548 93 103 1.0 3.0 0.00 0.00 0.00 60 1011.2
20260903222047 93 328 2.0 2.0 0.00 0.00 0.00 60 1011.2
20260903221543 93 183 3.0 3.0 0.00 0.00 0.00 60 1011.3
20260903221040 94 191 0.0 3.0 0.00 0.00 0.00 59 1011.1
20260903220534 94 324 3.0 3.0 0.00 0.00 0.00 59 1011.0
20260903220034 95 185 0.0 2.0 0.00 0.00 0.00 58 1011.2
20260903215533 94 261 0.0 3.0 0.00 0.00 0.00 59 1011.1
20260903215033 93 180 2.0 5.0 0.00 0.00 0.00 60 1011.2
20260903214532 93 203 1.0 3.0 0.00 0.00 0.00 61 1011.3
20260903214027 93 270 0.0 2.0 0.00 0.00 0.00 62 1011.3
20260903213523 93 213 2.0 3.0 0.00 0.00 0.00 60 1011.3
20260903213018 93 250 2.0 4.0 0.00 0.00 0.00 60 1011.5
20260903212514 93 8 0.0 2.0 0.00 0.00 0.00 61 1011.3
20260903212009 93 276 2.0 4.0 0.00 0.00 0.00 61 1011.4
20260903211504 93 270 3.0 7.0 0.00 0.00 0.00 60 1011.4
20260903211001 93 270 2.0 4.0 0.00 0.00 0.00 61 1011.6
20260903210501 93 270 0.0 5.0 0.00 0.00 0.00 61 1011.6
20260903205956 92 261 0.0 5.0 0.00 0.00 0.00 61 1011.9
20260903205455 92 258 3.0 8.0 0.00 0.00 0.00 62 1011.8
20260903204950 92 233 3.0 3.0 0.00 0.00 0.00 63 1011.9
20260903204447 93 183 2.0 2.0 0.00 0.00 0.00 62 1012.0
20260903203942 92 190 0.0 2.0 0.00 0.00 0.00 63 1012.0
20260903203437 93 180 3.0 4.0 0.00 0.00 0.00 62 1012.0
20260903202937 92 353 4.0 6.0 0.00 0.00 0.00 64 1012.2
20260903202433 93 0 2.0 4.0 0.00 0.00 0.00 64 1012.3
20260903201933 92 71 0.0 3.0 0.00 0.00 0.00 63 1012.3
20260903201429 91 251 2.0 4.0 0.00 0.00 0.00 65 1012.4
20260903200927 91 201 0.0 2.0 0.00 0.00 0.00 66 1012.5
20260903200422 91 186 3.0 5.0 0.00 0.00 0.00 65 1012.5
20260903195917 90 240 0.0 3.0 0.00 0.00 0.00 66 1012.3
20260903195414 91 196 0.0 3.0 0.00 0.00 0.00 65 1012.4
20260903194914 90 278 0.0 3.0 0.00 0.00 0.00 67 1012.5
20260903194409 90 98 3.0 3.0 0.00 0.00 0.00 67 1012.5
20260903193904 90 186 3.0 4.0 0.00 0.00 0.00 67 1012.4
20260903193401 91 90 0.0 5.0 0.00 0.00 0.00 67 1012.7
20260903192855 90 264 2.0 5.0 0.00 0.00 0.00 68 1012.8
20260903192352 90 288 0.0 9.0 0.00 0.00 0.00 68 1012.9
20260903191848 90 180 0.0 3.0 0.00 0.00 0.00 68 1012.8
20260903191344 91 33 0.0 3.0 0.00 0.00 0.00 68 1013.0
20260903190843 90 345 2.0 5.0 0.00 0.00 0.00 67 1013.1
20260903190338 90 203 0.0 4.0 0.00 0.00 0.00 68 1013.3
20260903185837 89 182 0.0 4.0 0.00 0.00 0.00 70 1013.3
20260903185332 89 95 2.0 4.0 0.00 0.00 0.00 70 1013.3
20260903184828 89 289 2.0 4.0 0.00 0.00 0.00 70 1013.4
20260903184326 88 201 5.0 6.0 0.00 0.00 0.00 71 1013.6
20260903183825 88 40 0.0 5.0 0.00 0.00 0.00 71 1013.7
20260903183320 89 346 0.0 4.0 0.00 0.00 0.00 70 1013.7
20260903182814 87 63 0.0 3.0 0.00 0.00 0.00 73 1013.6
20260903182313 87 198 0.0 3.0 0.00 0.00 0.00 73 1013.8
20260903181813 88 187 4.0 4.0 0.00 0.00 0.00 73 1013.9
20260903181309 88 41 2.0 2.0 0.00 0.00 0.00 72 1013.7
20260903180808 89 270 2.0 3.0 0.00 0.00 0.00 71 1013.6
20260903180308 89 270 0.0 3.0 0.00 0.00 0.00 72 1013.8
20260903175808 89 307 2.0 4.0 0.00 0.00 0.00 70 1013.7
20260903175307 89 185 3.0 4.0 0.00 0.00 0.00 70 1013.9
20260903174801 89 174 1.0 3.0 0.00 0.00 0.00 70 1013.7
20260903174257 89 114 2.0 5.0 0.00 0.00 0.00 70 1013.9
20260903173756 89 97 0.0 3.0 0.00 0.00 0.00 70 1014.1
20260903173253 89 71 0.0 3.0 0.00 0.00 0.00 71 1014.2
20260903172748 89 219 3.0 5.0 0.00 0.00 0.00 71 1014.1
20260903172242 89 253 0.0 5.0 0.00 0.00 0.00 71 1014.4
20260903171738 88 209 0.0 3.0 0.00 0.00 0.00 71 1014.3
20260903171233 89 201 2.0 5.0 0.00 0.00 0.00 71 1014.2
20260903170732 89 186 1.0 4.0 0.00 0.00 0.00 71 1014.5
20260903170228 88 106 0.0 3.0 0.00 0.00 0.00 73 1014.1
20260903165726 89 308 3.0 5.0 0.00 0.00 0.00 71 1014.5
20260903165221 88 106 0.0 2.0 0.00 0.00 0.00 73 1014.5
20260903164721 87 305 2.0 3.0 0.00 0.00 0.00 73 1014.1
20260903164217 87 117 2.0 7.0 0.00 0.00 0.00 74 1014.6
20260903163716 86 270 3.0 3.0 0.00 0.00 0.00 75 1014.5
20260903163213 86 257 0.0 2.0 0.00 0.00 0.00 76 1014.2
20260903162709 86 70 0.0 5.0 0.00 0.00 0.00 76 1014.3
20260903162205 86 120 0.0 2.0 0.00 0.00 0.00 76 1014.4
20260903161700 86 194 0.0 2.0 0.00 0.00 0.00 76 1014.6
20260903161155 85 270 1.0 2.0 0.00 0.00 0.00 77 1014.4
20260903160651 85 334 0.0 2.0 0.00 0.00 0.00 78 1014.7
20260903160145 84 98 0.0 4.0 0.00 0.00 0.00 78 1014.6
20260903155644 84 16 0.0 2.0 0.00 0.00 0.00 79 1014.5
20260903155139 84 90 1.0 2.0 0.00 0.00 0.00 79 1014.5
20260903154635 83 192 2.0 2.0 0.00 0.00 0.00 80 1014.5
20260903154131 83 96 2.0 2.0 0.00 0.00 0.00 80 1014.4
20260903153626 83 172 0.0 2.0 0.00 0.00 0.00 80 1014.3
20260903153122 82 105 0.0 2.0 0.00 0.00 0.00 81 1014.4
20260903152618 82 180 2.0 3.0 0.00 0.00 0.00 81 1014.3
20260903152114 82 270 0.0 2.0 0.00 0.00 0.00 81 1014.3
20260903151613 82 106 0.0 3.0 0.00 0.00 0.00 81 1014.4
20260903151108 82 195 0.0 2.0 0.00 0.00 0.00 82 1014.4
20260903150608 82 80 2.0 3.0 0.00 0.00 0.00 81 1014.3
20260903145602 82 80 2.0 3.0 0.00 0.00 0.00 82 1014.2
20260903145058 81 180 0.0 3.0 0.00 0.00 0.00 82 1014.1
20260903144556 81 199 2.0 2.0 0.00 0.00 0.00 82 1014.5
20260903144053 81 195 0.0 3.0 0.00 0.00 0.00 83 1014.4
20260903143549 81 184 0.0 2.0 0.00 0.00 0.00 83 1014.7
20260903143044 80 190 0.0 2.0 0.00 0.00 0.00 83 1014.2
20260903142540 80 103 2.0 5.0 0.00 0.00 0.00 83 1014.6
20260903142037 80 0 0.0 2.0 0.00 0.00 0.00 82 1014.7
20260903141532 80 200 1.0 2.0 0.00 0.00 0.00 82 1014.7
20260903141027 80 185 0.0 3.0 0.00 0.00 0.00 82 1014.5
20260903140523 80 57 0.0 2.0 0.00 0.00 0.00 82 1014.4
20260903140018 80 203 0.0 1.0 0.00 0.00 0.00 82 1014.5
20260903135513 80 246 0.0 2.0 0.00 0.00 0.00 82 1014.3
20260903135013 80 188 1.0 3.0 0.00 0.00 0.00 82 1014.3
20260903134513 80 194 0.0 1.0 0.00 0.00 0.00 83 1014.4
20260903134009 80 228 0.0 2.0 0.00 0.00 0.00 83 1014.4
20260903133506 79 188 0.0 3.0 0.00 0.00 0.00 83 1014.3
20260903133001 79 203 0.0 2.0 0.00 0.00 0.00 83 1014.2
20260903132457 79 185 0.0 3.0 0.00 0.00 0.00 83 1014.2
20260903131957 79 187 0.0 3.0 0.00 0.00 0.00 83 1014.4
20260903131452 79 180 0.0 1.0 0.00 0.00 0.00 83 1014.0
20260903130951 79 180 0.0 2.0 0.00 0.00 0.00 83 1014.2
20260903130446 79 188 0.0 0.0 0.00 0.00 0.00 82 1014.3
20260903125945 79 180 0.0 0.0 0.00 0.00 0.00 82 1014.1
20260903125445 79 180 1.0 2.0 0.00 0.00 0.00 82 1014.4
20260903124944 79 172 0.0 1.0 0.00 0.00 0.00 82 1014.1
20260903124440 78 194 0.0 2.0 0.00 0.00 0.00 82 1014.0
20260903123939 78 195 0.0 3.0 0.00 0.00 0.00 82 1014.0
20260903123434 78 99 0.0 1.0 0.00 0.00 0.00 83 1014.0
20260903122933 78 165 1.0 2.0 0.00 0.00 0.00 83 1013.8
20260903122433 77 209 0.0 0.0 0.00 0.00 0.00 84 1013.9
20260903121931 77 209 0.0 0.0 0.00 0.00 0.00 83 1013.6
20260903121427 77 195 0.0 1.0 0.00 0.00 0.00 84 1013.9
20260903120923 77 187 0.0 1.0 0.00 0.00 0.00 83 1014.1
20260903120422 77 180 0.0 0.0 0.00 0.00 0.00 83 1013.7
20260903115921 77 172 0.0 0.0 0.00 0.00 0.00 84 1013.8
20260903115420 77 198 0.0 0.0 0.00 0.00 0.00 84 1013.6
20260903114920 77 188 0.0 0.0 0.00 0.00 0.00 84 1013.6
20260903114416 77 180 0.0 0.0 0.00 0.00 0.00 84 1013.6
20260903113912 77 180 0.0 0.0 0.00 0.00 0.00 83 1013.9
20260903113407 78 180 0.0 0.0 0.00 0.00 0.00 83 1013.7
20260903112903 78 195 0.0 0.0 0.00 0.00 0.00 84 1013.7
20260903112359 78 195 0.0 0.0 0.00 0.00 0.00 83 1013.9
20260903111857 78 195 0.0 0.0 0.00 0.00 0.00 84 1014.0
20260903111357 78 195 0.0 0.0 0.00 0.00 0.00 84 1013.6
20260903110853 78 180 0.0 0.0 0.00 0.00 0.00 83 1013.7
20260903110349 78 180 0.0 1.0 0.00 0.00 0.00 83 1013.5